Home > Weather > Mersin > Past weeks

Flag for Turkey Past Weather in Mersin, Turkey — Yesterday and Last 2 Weeks

Now
77 °F

Passing clouds.


Feels Like: 78 °F
Forecast: 70 / 93 °F
Wind: 1 mph from North

Location: Adana / Sakirpasa

Current Time: Jul 27, 2016 at 5:00:21 AM

Latest Report: Jul 27, 2016 at 3:50 AM


Visibility: N/A

Pressure: 29.68 "Hg

Humidity: 94%

Dew Point: 75 °F

Location of MersinLocation

Past Weather in Mersin — Graph

°F

Mersin Temperature Yesterday

Maximum temperature yesterday: 95 °F (at 1:50 PM)
Minimum temperature yesterday: 75 °F (at 4:20 AM)
Average temperature yesterday: 84 °F

High & Low Weather Summary for the Past Weeks

 TemperatureHumidityPressure
High97 °F (Jul 24, 1:20 PM)100% (Jul 25, 2:20 AM)29.83 "Hg (Jul 25, 2:20 AM)
Low72 °F (Jul 12, 3:50 AM)27% (Jul 25, 12:20 PM)29.53 "Hg (Jul 24, 3:20 PM)
Average84 °F71%29.69 "Hg
* Reported Jul 12 3:20 AM — Jul 27 3:50 AM, Mersin, Weather by CustomWeather, © 2016

Note: Actual official high and low records may vary slightly from our data, if they occured in-between our weather recording intervals... More about our weather records

Advertising

Mersin Weather History for the Previous 24 Hours

Scroll right to see more
 ConditionsComfort  
Time TempWeatherWind HumidityBarometerVisibility
3:50 AM
Wed, Jul 27
77 °FPassing clouds.1 mph94%29.68 "HgN/A
3:20 AM77 °FPassing clouds.2 mph94%29.68 "HgN/A
2:50 AM79 °FPassing clouds.1 mph89%29.68 "HgN/A
2:20 AM79 °FPassing clouds.3 mph89%29.68 "HgN/A
1:50 AM79 °FPassing clouds.3 mph94%29.68 "HgN/A
1:20 AM79 °FPassing clouds.3 mph94%29.68 "HgN/A
12:50 AM81 °FPassing clouds.1 mph89%29.68 "HgN/A
12:20 AM81 °FPassing clouds.2 mph89%29.68 "HgN/A
11:50 PM
Tue, Jul 26
81 °FPassing clouds.2 mph89%29.68 "HgN/A
11:20 PM81 °FPassing clouds.2 mph89%29.68 "HgN/A
10:50 PM81 °FPassing clouds.2 mph89%29.68 "HgN/A
10:20 PM81 °FPassing clouds.5 mph89%29.68 "HgN/A
9:50 PM81 °FPassing clouds.5 mph89%29.68 "HgN/A
9:20 PM82 °FPassing clouds.5 mph84%29.68 "HgN/A
8:50 PM82 °FPassing clouds.5 mph84%29.68 "HgN/A
8:20 PM84 °FPassing clouds.5 mph74%29.65 "HgN/A
7:50 PM84 °FPassing clouds.5 mph74%29.65 "HgN/A
7:20 PM86 °FPassing clouds.6 mph70%29.65 "HgN/A
6:50 PM88 °FPassing clouds.9 mph66%29.65 "HgN/A
6:20 PM90 °FPassing clouds.10 mph59%29.65 "HgN/A
5:50 PM90 °FPassing clouds.13 mph63%29.62 "HgN/A
5:20 PM91 °FPassing clouds.12 mph52%29.62 "HgN/A
4:50 PM91 °FPassing clouds.13 mph52%29.65 "HgN/A
4:20 PM91 °FPassing clouds.13 mph52%29.65 "HgN/A
3:50 PM93 °FPassing clouds.12 mph49%29.65 "HgN/A
3:20 PM93 °FPassing clouds.12 mph49%29.65 "HgN/A
2:50 PM93 °FPassing clouds.10 mph53%29.65 "HgN/A
2:20 PM93 °FPassing clouds.12 mph56%29.65 "HgN/A
1:50 PM95 °FPassing clouds.10 mph50%29.65 "HgN/A
1:20 PM93 °FPassing clouds.9 mph53%29.65 "HgN/A
12:50 PM93 °FPassing clouds.7 mph47%29.65 "HgN/A
12:20 PM91 °FPassing clouds.5 mph49%29.65 "HgN/A
11:50 AM91 °FPassing clouds.7 mph52%29.65 "HgN/A
11:20 AM90 °FPassing clouds.6 mph55%29.65 "HgN/A
10:50 AM90 °FPassing clouds.6 mph59%29.68 "HgN/A
10:20 AM88 °FScattered clouds.6 mph59%29.68 "HgN/A
9:50 AM86 °FScattered clouds.6 mph66%29.68 "HgN/A
9:20 AM84 °FScattered clouds.6 mph70%29.68 "HgN/A
8:50 AM84 °FScattered clouds.5 mph74%29.68 "HgN/A
8:20 AM82 °FScattered clouds.3 mph79%29.68 "HgN/A
7:50 AM82 °FScattered clouds.2 mph79%29.68 "HgN/A
7:20 AM79 °FScattered clouds.1 mph94%29.68 "HgN/A
6:50 AM77 °FScattered clouds.2 mph94%29.68 "HgN/A
6:20 AM77 °FPassing clouds.2 mph89%29.68 "HgN/A
5:50 AM75 °FPassing clouds.2 mph89%29.68 "HgN/A
5:20 AM75 °FPassing clouds.2 mph89%29.65 "HgN/A
Weather by CustomWeather, © 2016

See weather overviewHow to use our weather pages